TimeAKDT,TemperatureF,Dew PointF,Humidity,Sea Level PressureIn,VisibilityMPH,Wind Direction,Wind SpeedMPH,Gust SpeedMPH,PrecipitationIn,Events,Conditions,WindDirDegrees,DateUTC
12:53 AM,52.0,45.0,77,30.15,10.0,SW,9.2,18.4,N/A,,Scattered Clouds,230,2012-10-05 08:53:00
1:53 AM,51.1,45.0,80,30.18,10.0,West,4.6,-,N/A,,Scattered Clouds,260,2012-10-05 09:53:00
2:53 AM,48.0,45.0,89,30.19,10.0,WNW,9.2,-,N/A,,Scattered Clouds,300,2012-10-05 10:53:00
3:53 AM,46.9,45.0,93,30.20,10.0,North,4.6,-,N/A,,Scattered Clouds,360,2012-10-05 11:53:00
4:42 AM,46.4,44.6,93,30.19,10.0,North,3.5,-,N/A,,Scattered Clouds,10,2012-10-05 12:42:00
4:53 AM,46.0,45.0,96,30.20,10.0,Calm,Calm,-,N/A,,Scattered Clouds,0,2012-10-05 12:53:00
5:05 AM,46.4,44.6,93,30.20,10.0,Calm,Calm,-,N/A,,Mostly Cloudy,0,2012-10-05 13:05:00
5:46 AM,46.4,44.6,93,30.20,10.0,Calm,Calm,-,N/A,,Mostly Cloudy,0,2012-10-05 13:46:00
5:53 AM,46.0,45.0,96,30.21,10.0,Calm,Calm,-,N/A,,Mostly Cloudy,0,2012-10-05 13:53:00
6:53 AM,46.9,45.0,93,30.20,10.0,NE,3.5,-,N/A,,Overcast,50,2012-10-05 14:53:00
7:53 AM,46.9,45.0,93,30.22,10.0,Calm,Calm,-,N/A,,Mostly Cloudy,0,2012-10-05 15:53:00
8:53 AM,46.9,45.0,93,30.21,10.0,Calm,Calm,-,N/A,,Mostly Cloudy,0,2012-10-05 16:53:00
9:53 AM,48.0,44.1,86,30.21,10.0,NE,3.5,-,N/A,,Overcast,40,2012-10-05 17:53:00
10:53 AM,48.9,45.0,86,30.22,10.0,Calm,Calm,-,0.01,Rain,Light Rain,0,2012-10-05 18:53:00
11:53 AM,48.0,46.0,93,30.23,5.0,East,3.5,-,0.02,Rain,Light Rain,100,2012-10-05 19:53:00
12:53 PM,48.9,46.0,90,30.21,5.0,NNE,3.5,-,0.02,Rain,Light Rain,30,2012-10-05 20:53:00
1:53 PM,48.0,46.0,93,30.18,6.0,North,4.6,-,0.05,Rain,Light Rain,360,2012-10-05 21:53:00
2:53 PM,48.0,46.0,93,30.17,6.0,NNE,5.8,-,0.04,Rain,Light Rain,20,2012-10-05 22:53:00
3:53 PM,48.0,46.0,93,30.14,5.0,North,4.6,-,0.09,Rain,Rain,10,2012-10-05 23:53:00
4:53 PM,46.9,46.9,100,30.11,4.0,NNW,4.6,-,0.11,Rain,Rain,340,2012-10-06 00:53:00
5:03 PM,46.4,46.4,100,30.10,3.0,NNW,4.6,-,0.02,Rain,Rain,340,2012-10-06 01:03:00
5:53 PM,46.9,46.9,100,30.09,3.0,NNW,4.6,-,0.15,Rain,Rain,330,2012-10-06 01:53:00
6:53 PM,46.9,46.9,100,30.09,6.0,Calm,Calm,-,0.10,Rain,Rain,0,2012-10-06 02:53:00
7:53 PM,46.9,46.9,100,30.11,5.0,Calm,Calm,-,0.06,Rain,Light Rain,0,2012-10-06 03:53:00
8:17 PM,46.4,46.4,100,30.09,3.0,Calm,Calm,-,0.00,Rain,Light Rain,0,2012-10-06 04:17:00
8:53 PM,46.9,46.9,100,30.11,3.0,Calm,Calm,-,0.00,,Overcast,0,2012-10-06 04:53:00
9:02 PM,46.4,46.4,100,30.10,0.5,Calm,Calm,-,N/A,Fog,Fog,0,2012-10-06 05:02:00
9:53 PM,46.9,46.9,100,30.11,0.5,Calm,Calm,-,N/A,Fog,Fog,0,2012-10-06 05:53:00
10:53 PM,46.9,46.9,100,30.11,0.5,Calm,Calm,-,N/A,Fog,Fog,0,2012-10-06 06:53:00
11:47 PM,46.4,46.4,100,30.11,3.0,Calm,Calm,-,N/A,,Overcast,0,2012-10-06 07:47:00
11:53 PM,46.9,46.0,97,30.12,3.0,Calm,Calm,-,0.00,Rain,Light Rain,0,2012-10-06 07:53:00